When you browse on this site, cookies collect data to enhance your experience and personalize the content and advertising you see.
Visit our Privacy Policy to learn more. By continuing to use the site, you agree to this use of cookies and data.
  • In United Kingdom
  • List of Countries
  • For 7 days
  • Water Temperature
  • Weather Map
  • Weather Widgets
  • user-avatar
    Login

    Hourly Weather Veliko Tarnovo

    Today, 16 October, Wednesday

    Time Temperature Precipitation Wind Pressure Humidity
    00:00 +15°C° 0 mm 1 mps 740 mmHg 55%
    01:00 +15°C° 0 mm 1 mps 740 mmHg 55%
    02:00 +15°C° 0 mm 1 mps 740 mmHg 55%
    03:00 +14°C° 0 mm 1 mps 740 mmHg 54%
    04:00 +13°C° 0 mm 0 mps 740 mmHg 53%
    05:00 +13°C° 0 mm 0 mps 740 mmHg 53%
    06:00 +14°C° 0 mm 0 mps 740 mmHg 51%
    07:00 +15°C° 0 mm 0 mps 740 mmHg 49%
    08:00 +16°C° 0 mm 0 mps 740 mmHg 47%
    09:00 +18°C° 0 mm 0 mps 740 mmHg 42%
    10:00 +22°C° 0 mm 1 mps 740 mmHg 37%
    11:00 +24°C° 0 mm 1 mps 740 mmHg 32%
    12:00 +25°C° 0 mm 1 mps 740 mmHg 31%
    13:00 +26°C° 0 mm 1 mps 740 mmHg 30%
    14:00 +27°C° 0 mm 1 mps 740 mmHg 29%
    15:00 +25°C° 0 mm 1 mps 739 mmHg 33%
    16:00 +24°C° 0 mm 1 mps 739 mmHg 37%
    17:00 +23°C° 0 mm 1 mps 739 mmHg 41%
    18:00 +21°C° 0 mm 1 mps 739 mmHg 44%
    19:00 +20°C° 0 mm 1 mps 739 mmHg 47%
    20:00 +18°C° 0 mm 1 mps 739 mmHg 50%
    21:00 +16°C° 0 mm 0 mps 740 mmHg 51%
    22:00 +15°C° 0 mm 0 mps 740 mmHg 53%
    23:00 +15°C° 0 mm 0 mps 740 mmHg 54%

    Tomorrow, 17 October, Thursday

    Time Temperature Precipitation Wind Pressure Humidity
    00:00 +15°C° 0 mm 0 mps 740 mmHg 55%
    01:00 +14°C° 0 mm 0 mps 740 mmHg 56%
    02:00 +14°C° 0 mm 0 mps 740 mmHg 56%
    03:00 +14°C° 0 mm 0 mps 740 mmHg 58%
    04:00 +14°C° 0 mm 1 mps 740 mmHg 59%
    05:00 +14°C° 0 mm 1 mps 740 mmHg 60%
    06:00 +15°C° 0 mm 1 mps 740 mmHg 58%
    07:00 +15°C° 0 mm 0 mps 740 mmHg 57%
    08:00 +16°C° 0 mm 0 mps 740 mmHg 55%
    09:00 +20°C° 0 mm 1 mps 741 mmHg 50%
    10:00 +22°C° 0 mm 1 mps 741 mmHg 44%
    11:00 +24°C° 0 mm 1 mps 741 mmHg 39%
    12:00 +25°C° 0 mm 1 mps 741 mmHg 37%
    13:00 +25°C° 0 mm 1 mps 740 mmHg 34%
    14:00 +26°C° 0 mm 1 mps 740 mmHg 32%
    15:00 +25°C° 0 mm 1 mps 740 mmHg 36%
    16:00 +24°C° 0 mm 1 mps 740 mmHg 39%
    17:00 +22°C° 0 mm 1 mps 740 mmHg 43%
    18:00 +21°C° 0 mm 1 mps 740 mmHg 46%
    19:00 +20°C° 0 mm 1 mps 740 mmHg 49%
    20:00 +17°C° 0 mm 0 mps 740 mmHg 51%
    21:00 +16°C° 0 mm 0 mps 740 mmHg 53%
    22:00 +16°C° 0 mm 0 mps 741 mmHg 55%
    23:00 +15°C° 0 mm 0 mps 741 mmHg 57%

    Day after tomorrow, 18 October, Friday

    Time Temperature Precipitation Wind Pressure Humidity
    00:00 +15°C° 0 mm 0 mps 741 mmHg 58%
    01:00 +15°C° 0 mm 0 mps 740 mmHg 59%
    02:00 +14°C° 0 mm 0 mps 740 mmHg 60%
    03:00 +14°C° 0 mm 0 mps 740 mmHg 60%
    04:00 +14°C° 0 mm 0 mps 741 mmHg 61%
    05:00 +14°C° 0 mm 0 mps 741 mmHg 61%
    06:00 +15°C° 0 mm 0 mps 741 mmHg 59%
    07:00 +15°C° 0 mm 0 mps 741 mmHg 57%
    08:00 +16°C° 0 mm 0 mps 741 mmHg 55%
    09:00 +18°C° 0 mm 0 mps 741 mmHg 50%
    10:00 +20°C° 0 mm 0 mps 741 mmHg 44%
    11:00 +24°C° 0 mm 1 mps 742 mmHg 38%
    12:00 +25°C° 0 mm 1 mps 741 mmHg 36%
    13:00 +26°C° 0 mm 1 mps 741 mmHg 34%
    14:00 +27°C° 0 mm 1 mps 740 mmHg 31%
    15:00 +25°C° 0 mm 1 mps 740 mmHg 34%
    16:00 +24°C° 0 mm 1 mps 740 mmHg 37%
    17:00 +23°C° 0 mm 1 mps 740 mmHg 40%
    18:00 +22°C° 0 mm 1 mps 740 mmHg 44%
    19:00 +20°C° 0 mm 1 mps 740 mmHg 48%
    20:00 +19°C° 0 mm 1 mps 740 mmHg 51%
    21:00 +19°C° 0 mm 1 mps 740 mmHg 53%
    22:00 +18°C° 0 mm 1 mps 741 mmHg 54%
    23:00 +18°C° 0 mm 1 mps 741 mmHg 56%

    19 October, Saturday

    Time Temperature Precipitation Wind Pressure Humidity
    00:00 +18°C° 0 mm 1 mps 741 mmHg 57%
    01:00 +15°C° 0 mm 0 mps 740 mmHg 58%
    02:00 +15°C° 0 mm 0 mps 740 mmHg 59%
    03:00 +15°C° 0 mm 0 mps 740 mmHg 60%
    04:00 +15°C° 0 mm 0 mps 740 mmHg 61%
    05:00 +14°C° 0 mm 0 mps 740 mmHg 61%
    06:00 +15°C° 0 mm 0 mps 741 mmHg 60%
    07:00 +16°C° 0 mm 0 mps 741 mmHg 58%
    08:00 +17°C° 0 mm 0 mps 741 mmHg 56%
    09:00 +19°C° 0 mm 0 mps 741 mmHg 49%
    10:00 +23°C° 0 mm 1 mps 741 mmHg 43%
    11:00 +25°C° 0 mm 1 mps 741 mmHg 36%
    12:00 +26°C° 0 mm 1 mps 741 mmHg 33%
    13:00 +27°C° 0 mm 1 mps 741 mmHg 31%
    14:00 +27°C° 0 mm 2 mps 741 mmHg 28%
    15:00 +26°C° 0 mm 2 mps 740 mmHg 31%
    16:00 +25°C° 0 mm 1 mps 740 mmHg 35%
    17:00 +24°C° 0 mm 1 mps 740 mmHg 38%
    18:00 +22°C° 0 mm 1 mps 740 mmHg 41%
    19:00 +21°C° 0 mm 1 mps 740 mmHg 45%
    20:00 +19°C° 0 mm 1 mps 741 mmHg 49%
    21:00 +19°C° 0 mm 1 mps 741 mmHg 51%
    22:00 +18°C° 0 mm 1 mps 741 mmHg 52%
    23:00 +18°C° 0 mm 1 mps 741 mmHg 54%

    20 October, Sunday

    Time Temperature Precipitation Wind Pressure Humidity
    00:00 +16°C° 0 mm 1 mps 741 mmHg 55%
    01:00 +16°C° 0 mm 1 mps 741 mmHg 56%
    02:00 +16°C° 0 mm 1 mps 741 mmHg 57%
    03:00 +15°C° 0 mm 1 mps 741 mmHg 58%
    04:00 +15°C° 0 mm 1 mps 741 mmHg 58%
    05:00 +15°C° 0 mm 1 mps 741 mmHg 59%
    06:00 +15°C° 0 mm 0 mps 741 mmHg 56%
    07:00 +16°C° 0 mm 0 mps 742 mmHg 54%
    08:00 +17°C° 0 mm 0 mps 742 mmHg 52%
    09:00 +19°C° 0 mm 0 mps 742 mmHg 46%
    10:00 +23°C° 0 mm 1 mps 742 mmHg 40%
    11:00 +25°C° 0 mm 1 mps 743 mmHg 34%
    12:00 +26°C° 0 mm 1 mps 742 mmHg 32%
    13:00 +27°C° 0 mm 1 mps 742 mmHg 29%
    14:00 +27°C° 0 mm 2 mps 742 mmHg 27%
    15:00 +26°C° 0 mm 1 mps 742 mmHg 30%
    16:00 +25°C° 0 mm 1 mps 742 mmHg 34%
    17:00 +23°C° 0 mm 1 mps 741 mmHg 37%
    18:00 +22°C° 0 mm 1 mps 742 mmHg 40%
    19:00 +21°C° 0 mm 1 mps 742 mmHg 43%
    20:00 +19°C° 0 mm 1 mps 742 mmHg 46%
    21:00 +19°C° 0 mm 1 mps 742 mmHg 48%
    22:00 +18°C° 0 mm 1 mps 743 mmHg 50%
    23:00 +18°C° 0 mm 1 mps 743 mmHg 51%

    21 October, Monday

    Time Temperature Precipitation Wind Pressure Humidity
    00:00 +16°C° 0 mm 1 mps 743 mmHg 53%
    01:00 +16°C° 0 mm 1 mps 743 mmHg 55%
    02:00 +15°C° 0 mm 1 mps 743 mmHg 56%
    03:00 +14°C° 0 mm 0 mps 743 mmHg 58%
    04:00 +14°C° 0 mm 0 mps 743 mmHg 59%
    05:00 +13°C° 0 mm 0 mps 743 mmHg 60%
    06:00 +14°C° 0 mm 0 mps 743 mmHg 59%
    07:00 +15°C° 0 mm 0 mps 743 mmHg 58%
    08:00 +15°C° 0 mm 0 mps 743 mmHg 56%
    09:00 +19°C° 0 mm 1 mps 744 mmHg 50%
    10:00 +21°C° 0 mm 1 mps 744 mmHg 44%
    11:00 +23°C° 0 mm 1 mps 744 mmHg 38%
    12:00 +24°C° 0 mm 1 mps 744 mmHg 35%
    13:00 +25°C° 0 mm 2 mps 744 mmHg 32%
    14:00 +26°C° 0 mm 2 mps 743 mmHg 29%
    15:00 +24°C° 0 mm 2 mps 743 mmHg 33%
    16:00 +23°C° 0 mm 2 mps 743 mmHg 37%
    17:00 +22°C° 0 mm 1 mps 743 mmHg 41%
    18:00 +20°C° 0 mm 1 mps 743 mmHg 46%
    19:00 +19°C° 0 mm 1 mps 743 mmHg 51%
    20:00 +16°C° 0 mm 1 mps 743 mmHg 55%
    21:00 +16°C° 0 mm 1 mps 743 mmHg 57%
    22:00 +15°C° 0 mm 1 mps 743 mmHg 59%
    23:00 +15°C° 0 mm 1 mps 743 mmHg 61%
    Show more